User: anonymous   Login
Location: Kitchener
(43.2612°N, 80.5078°W)
Time: 02:12:28
(UTC+02:00)
Language:

Iridium 57 - Orbit

View from above orbital plane
View from above orbital plane
View from above satellite
View from above satellite

Ground track
Ground track

The orbit data is extracted from the following two-line orbital elements,

1 25273U 98019B   16241.48395414  .00000083  00000-0  22535-4 0  9990
2 25273  86.3939  49.6745 0002181  87.4546 272.6899 14.34231610964119
Epoch (UTC): 28 August 2016 11:36:53
Eccentricity: 0.0002181
inclination: 86.3939°
perigee height: 776 km
apogee height: 779 km
right ascension of ascending node: 49.6745°
argument of perigee: 87.4546°
revolutions per day: 14.34231610
mean anomaly at epoch: 272.6899°
orbit number at epoch: 96411

The dashed part of the orbit path shows where the satellite is in the earth's shadow,  

DLR